This is the latest recevied weather packets stored in our database for station/object KO4T-4. If no packets are shown the sender has not sent any weather packets the latest 10 day(s).
| Time | Temp. | Humidity | Pressure | Rain* | Wind** | Luminosity | Snow |
|---|---|---|---|---|---|---|---|
| 1777742704 | 15° C | 52% | 1012.6 hPa | 0 mm | - | - | - |
| 1777742404 | 14.44° C | 50% | 1012.6 hPa | 0 mm | - | - | - |
| 1777742103 | 15° C | 53% | 1012.7 hPa | 0 mm | - | - | - |
| 1777741803 | 15° C | 54% | 1012.8 hPa | 0 mm | - | - | - |
| 1777741503 | 15° C | 55% | 1012.8 hPa | 0 mm | - | - | - |
| 1777741204 | 14.44° C | 54% | 1012.9 hPa | 0 mm | - | - | - |
| 1777740904 | 14.44° C | 56% | 1012.9 hPa | 0 mm | - | - | - |
| 1777740604 | 14.44° C | 56% | 1013 hPa | 0 mm | - | - | - |
| 1777740304 | 14.44° C | 58% | 1013.1 hPa | 0 mm | - | - | - |
| 1777740004 | 13.89° C | 59% | 1013.2 hPa | 0 mm | - | - | - |
| 1777739703 | 13.33° C | 57% | 1013.4 hPa | 0 mm | - | - | - |
| 1777739404 | 13.89° C | 60% | 1013.4 hPa | 0 mm | - | - | - |
| 1777739103 | 13.33° C | 58% | 1013.5 hPa | 0 mm | - | - | - |
| 1777738804 | 13.33° C | 63% | 1013.6 hPa | 0 mm | - | - | - |
| 1777738504 | 13.33° C | 61% | 1013.7 hPa | 0 mm | - | - | - |
| 1777738204 | 13.33° C | 63% | 1013.7 hPa | 0 mm | - | - | - |
| 1777737904 | 13.33° C | 60% | 1013.7 hPa | 0 mm | - | - | - |
| 1777737604 | 13.33° C | 61% | 1013.8 hPa | 0 mm | - | - | - |
| 1777737304 | 13.33° C | 61% | 1013.9 hPa | 0 mm | - | - | - |
| 1777737003 | 13.33° C | 62% | 1013.8 hPa | 0 mm | - | - | - |
| 1777736703 | 13.33° C | 62% | 1013.8 hPa | 0 mm | - | - | - |
| 1777736404 | 13.33° C | 61% | 1013.7 hPa | 0 mm | - | - | - |
| 1777736103 | 13.33° C | 60% | 1013.8 hPa | 0 mm | - | - | - |
| 1777735804 | 13.33° C | 64% | 1013.7 hPa | 0 mm | - | - | - |
| 1777735504 | 12.78° C | 62% | 1013.7 hPa | 0 mm | - | - | - |
* Rain latest hour (hover to see other rain measurements)
** Current wind speed in m/s (hover to see current wind gust speed)